[[{"header":{"parameterUnit":"m.s-1","parameterCategory":1,"la1":30.2991,"la2":30.254,"lo1":-89.0895,"lo2":-89.0444,"dy":0.0017,"dx":0.0017,"nx":28,"ny":28,"refTime":"2024-06-29T03:00:00:Z","depth":0,"parameterNumber":2,"parameterNumberName":"U-component_of_WINDS"},"data":[0,0,0,0,0,0,0,0,0,0,0,0,0,0,0,0,0,0,0,0,0,0,0,0,0,0,0,0,0,0,0,0,0,0,0,0,0,0,0,0,0,0,0,0,0,0,0,0,0,0,0,0,0,0,0,0,0,0,3.2913,3.2914,0,3.3012,3.3013,3.3014,3.3029,3.3028,3.3027,3.3026,3.3131,3.3134,3.3138,0,0,0,0,0,0,0,0,0,0,0,0,0,3.2743,3.2746,3.2913,3.2914,3.2915,3.3011,3.3013,3.3014,3.3029,3.3028,3.3027,3.3026,3.313,3.3134,3.3138,0,0,0,0,0,0,0,0,0,0,0,0,0,3.2827,3.2747,3.2912,3.2934,3.2937,3.3011,3.3013,3.3015,3.3029,3.3028,3.3026,3.3025,3.3128,3.3133,3.3139,3.3199,0,0,3.3155,3.3158,0,0,0,0,0,0,0,0,3.2822,3.2833,3.293,3.2933,3.2936,3.3006,3.2991,3.3077,3.3029,3.2994,3.3026,3.3024,3.3091,3.3099,3.3121,3.3204,3.3209,3.3156,3.3159,3.3161,3.3163,0,0,0,0,0,0,0,3.2816,3.2829,3.2952,3.2931,3.2935,3.2941,3.2951,3.3008,3.3049,3.2997,3.2998,3.301,3.3092,3.3115,3.3123,3.321,3.3156,3.3161,3.3164,3.3166,3.3353,3.3355,0,0,0,0,0,0,3.2806,3.2824,3.2949,3.2955,3.2874,3.2945,3.2957,3.2985,3.3048,3.3057,3.3011,3.301,3.3107,3.3117,3.3127,3.3205,3.3161,3.3167,3.317,3.3352,3.3354,3.3356,0,0,0,0,0,0,3.2802,3.2817,3.2945,3.289,3.2906,3.2949,3.2981,3.2988,3.3011,3.3059,3.3067,3.3027,3.3106,3.3119,3.3182,3.3209,3.3169,3.3174,3.335,3.3352,3.3355,3.3359,0,0,0,0,0,0,3.2797,3.2815,3.2837,3.289,3.2909,3.2996,3.2983,3.2991,3.302,3.302,3.3075,3.3083,3.3106,3.3174,3.3187,3.3215,3.3178,3.3348,3.3351,3.3354,3.3357,3.3362,3.3366,0,0,0,0,0,3.2791,3.2834,3.2838,3.2853,3.2937,3.2998,3.3009,3.3033,3.3022,3.3046,3.3077,3.3082,3.3203,3.318,3.3196,3.3226,3.3346,3.335,3.3354,3.3355,3.3361,3.3366,0,0,0,0,0,0,3.2783,3.2841,3.2846,3.2907,3.2948,3.3,3.303,3.3038,3.3082,3.3081,3.311,3.3123,3.3185,3.3211,3.3184,3.329,3.3274,3.3281,3.327,3.3276,3.328,3.3273,3.3183,0,0,0,0,0,3.2788,3.2831,3.288,3.293,3.295,3.2987,3.3014,3.3029,3.3072,3.3089,3.3125,3.3168,3.3217,3.3248,3.3294,3.3361,3.3375,3.339,3.3394,3.3398,3.3404,3.3445,3.3453,3.3368,3.3368,3.3368,0,0,3.28,3.2837,3.2862,3.2929,3.2962,3.3008,3.3001,3.3048,3.3084,3.3097,3.3159,3.3187,3.3237,3.3303,3.3334,3.3327,3.343,3.3403,3.3405,3.3409,3.3449,3.3457,3.3464,3.3371,3.3371,3.337,0,0,3.2844,3.2876,3.2922,3.2956,3.3006,3.3031,3.3042,3.3094,3.3113,3.3176,3.3188,3.3231,3.3313,3.3349,3.3378,3.3441,3.3449,3.3456,3.3479,3.3518,3.3525,3.3531,3.3556,3.3564,3.3462,3.3462,3.3462,0,3.2853,3.292,3.2945,3.2994,3.3024,3.3039,3.3088,3.312,3.3183,3.3205,3.3196,3.3302,3.3336,3.3413,3.3428,3.3451,3.3467,3.3449,3.3522,3.3528,3.3534,3.3559,3.3568,3.3462,3.3462,3.3462,3.3462,0,3.293,3.2977,3.3009,3.307,3.3104,3.3152,3.3187,3.3219,3.3233,3.3259,3.3325,3.3367,3.3425,3.3444,3.3457,3.3524,3.3518,3.3515,3.35,3.3543,3.3566,3.3575,3.3463,3.3463,3.3463,3.3463,0,0,3.297,3.3046,3.3058,3.3087,3.3145,3.3183,3.3234,3.329,3.3318,3.3362,3.3407,3.3478,3.3477,3.351,3.3528,3.3563,3.3614,3.3557,3.3559,3.3568,3.3693,3.3695,3.3705,3.3619,3.3621,3.3622,3.369,0,3.3023,3.3112,3.3138,3.3214,3.326,3.3277,3.3322,3.3364,3.3391,3.3436,3.3466,3.3517,3.351,3.3531,3.3566,3.36,3.364,3.3596,3.3664,3.3666,3.3651,3.3717,3.3719,3.378,3.3699,3.37,3.3701,0,3.3096,3.3142,3.3223,3.3278,3.3299,3.3338,3.3393,3.3435,3.3485,3.3502,3.3541,3.3557,3.3614,3.3596,3.3676,3.3645,3.3675,3.3697,3.37,3.3708,3.3686,3.3729,3.38,3.381,3.3715,3.3714,3.3713,0,3.312,3.3202,3.3262,3.3287,3.3352,3.338,3.3409,3.3457,3.349,3.3539,3.3562,3.3617,3.3647,3.3691,3.3723,3.3706,3.3801,3.3785,3.382,3.3819,3.3839,3.3837,3.3918,3.3856,3.3856,3.3856,3.3856,0,3.3177,3.3226,3.3274,3.3311,3.3369,3.3399,3.3455,3.3485,3.3529,3.3574,3.3592,3.3634,3.3673,3.3721,3.3747,3.3811,3.3824,3.3842,3.3848,3.3841,3.3839,3.3861,3.3858,3.3858,3.3858,3.3857,3.3857,0,3.3213,3.3247,3.3314,3.3371,3.3387,3.3427,3.3477,3.3516,3.3544,3.3602,3.3617,3.3663,3.3721,3.3757,3.3831,3.3848,3.392,3.3924,3.3903,3.3906,3.3939,3.3936,3.4037,3.4054,3.398,3.3981,3.3981,0,3.3247,3.3286,3.3348,3.338,3.3409,3.3459,3.3493,3.3526,3.3562,3.3623,3.3654,3.3714,3.3763,3.3856,3.3897,3.3955,3.3961,3.3993,3.397,3.3963,3.3964,3.3962,3.3967,3.3997,3.3998,3.3998,3.3998,0,3.3306,3.3322,3.3369,3.3425,3.3466,3.3511,3.3556,3.3581,3.3622,3.3662,3.3721,3.376,3.3836,3.3896,3.3958,3.399,3.4003,3.4006,3.4017,3.401,3.3997,3.4007,3.3915,3.4003,3.4003,3.4002,3.4002,3.4002,3.3344,3.338,3.343,3.3485,3.3522,3.3565,3.3605,3.3639,3.3689,3.3754,3.3771,3.3834,3.3887,3.3971,3.4005,3.4056,3.4052,3.4068,3.4072,3.4076,3.4078,3.3988,3.4068,3.4068,3.4068,3.4067,3.4067,0,3.3405,3.3439,3.3488,3.3552,3.3595,3.3602,3.3654,3.369,3.3746,3.3793,3.3842,3.3912,3.3971,3.4018,3.408,3.4112,3.412,3.4128,3.4126,3.4134,3.4077,3.4062,3.4121,3.4121,3.4121,3.4121,3.4121,3.4121,3.3441,3.3505,3.3527,3.361,3.3644,3.3706,3.3735,3.3776,3.3814,3.3892,3.3941,3.3971,3.402,3.4085,3.4141,3.4154,3.4176,3.4183,3.4197,3.4143,3.4137,3.4132,3.4118,3.4188,3.4188,3.425,3.4251,3.4251]},{"header":{"parameterUnit":"m.s-1","parameterCategory":1,"la1":30.2991,"la2":30.254,"lo1":-89.0895,"lo2":-89.0444,"dy":0.0017,"dx":0.0017,"nx":28,"ny":28,"refTime":"2024-06-29T03:00:00:Z","depth":0,"parameterNumber":3,"parameterNumberName":"V-component_of_WINDS"},"data":[0,0,0,0,0,0,0,0,0,0,0,0,0,0,0,0,0,0,0,0,0,0,0,0,0,0,0,0,0,0,0,0,0,0,0,0,0,0,0,0,0,0,0,0,0,0,0,0,0,0,0,0,0,0,0,0,0,0,-0.3682,-0.3681,0,-0.365,-0.365,-0.3649,-0.3701,-0.3703,-0.3705,-0.3707,-0.367,-0.3668,-0.3665,0,0,0,0,0,0,0,0,0,0,0,0,0,-0.3785,-0.3783,-0.3682,-0.3681,-0.3681,-0.365,-0.365,-0.3649,-0.3701,-0.3703,-0.3705,-0.3707,-0.3671,-0.3668,-0.3665,0,0,0,0,0,0,0,0,0,0,0,0,0,-0.3746,-0.3783,-0.3682,-0.3703,-0.3705,-0.365,-0.365,-0.3649,-0.3701,-0.3703,-0.3706,-0.3709,-0.3672,-0.3668,-0.3664,-0.3586,0,0,-0.3652,-0.3651,0,0,0,0,0,0,0,0,-0.3748,-0.3742,-0.37,-0.3702,-0.3703,-0.3683,-0.3673,-0.3628,-0.37,-0.3702,-0.3707,-0.371,-0.3672,-0.3668,-0.3656,-0.3585,-0.3583,-0.3652,-0.365,-0.3648,-0.3647,0,0,0,0,0,0,0,-0.375,-0.3743,-0.3669,-0.37,-0.3701,-0.3714,-0.3711,-0.3665,-0.3672,-0.3702,-0.3706,-0.3702,-0.3673,-0.366,-0.3656,-0.3582,-0.3652,-0.3649,-0.3646,-0.3645,-0.3449,-0.3446,0,0,0,0,0,0,-0.3751,-0.3745,-0.367,-0.3668,-0.3733,-0.371,-0.3707,-0.3686,-0.3673,-0.3673,-0.3699,-0.3704,-0.3665,-0.366,-0.3655,-0.3565,-0.3648,-0.3644,-0.3642,-0.3452,-0.3448,-0.3445,0,0,0,0,0,0,-0.3753,-0.3744,-0.3671,-0.3708,-0.37,-0.3705,-0.3682,-0.3684,-0.3671,-0.3671,-0.3672,-0.3684,-0.3667,-0.366,-0.3604,-0.3564,-0.3642,-0.3639,-0.3455,-0.3451,-0.3447,-0.3383,0,0,0,0,0,0,-0.3756,-0.3744,-0.3714,-0.3707,-0.3697,-0.3621,-0.3679,-0.3682,-0.3665,-0.3671,-0.3657,-0.3658,-0.3669,-0.361,-0.36,-0.356,-0.3636,-0.3459,-0.3453,-0.3448,-0.3389,-0.3377,-0.3367,0,0,0,0,0,-0.3759,-0.3696,-0.3713,-0.3703,-0.3661,-0.3619,-0.3613,-0.3629,-0.3661,-0.3632,-0.3632,-0.3658,-0.357,-0.3603,-0.3593,-0.3551,-0.3461,-0.3455,-0.3449,-0.3393,-0.3379,-0.3367,0,0,0,0,0,0,-0.3696,-0.3695,-0.3714,-0.3646,-0.3633,-0.3628,-0.3591,-0.3613,-0.3588,-0.3595,-0.3614,-0.361,-0.3551,-0.3545,-0.3582,-0.3477,-0.3521,-0.3512,-0.3483,-0.3469,-0.3459,-0.3462,-0.3632,0,0,0,0,0,-0.3675,-0.3642,-0.3642,-0.3583,-0.3575,-0.3584,-0.3566,-0.358,-0.3566,-0.356,-0.3556,-0.3541,-0.351,-0.3489,-0.3461,-0.3388,-0.3387,-0.3355,-0.3344,-0.3335,-0.3327,-0.3292,-0.3278,-0.3424,-0.3424,-0.3425,0,0,-0.3629,-0.3625,-0.3603,-0.357,-0.3561,-0.3527,-0.3579,-0.3539,-0.3514,-0.3553,-0.3501,-0.3498,-0.3482,-0.3419,-0.339,-0.3412,-0.3287,-0.3327,-0.332,-0.3317,-0.3284,-0.327,-0.3258,-0.342,-0.3421,-0.3422,0,0,-0.353,-0.3522,-0.3474,-0.3465,-0.3452,-0.3459,-0.3447,-0.344,-0.344,-0.3388,-0.3418,-0.3388,-0.3334,-0.3323,-0.331,-0.3211,-0.3234,-0.32,-0.3144,-0.3109,-0.3098,-0.3088,-0.3054,-0.3042,-0.3193,-0.3193,-0.3192,0,-0.3475,-0.3425,-0.3445,-0.3405,-0.3391,-0.3428,-0.3379,-0.3369,-0.3346,-0.3336,-0.3361,-0.3297,-0.3288,-0.3224,-0.32,-0.3188,-0.3176,-0.3202,-0.3098,-0.3088,-0.3079,-0.3048,-0.3035,-0.3189,-0.3189,-0.319,-0.319,0,-0.336,-0.3325,-0.3287,-0.3268,-0.3249,-0.3204,-0.3218,-0.3197,-0.3213,-0.3217,-0.3165,-0.3157,-0.313,-0.3115,-0.3129,-0.3053,-0.3068,-0.3095,-0.314,-0.3061,-0.3032,-0.302,-0.3183,-0.3185,-0.3186,-0.3187,0,0,-0.3217,-0.3213,-0.3199,-0.3192,-0.3182,-0.3155,-0.3113,-0.3088,-0.3071,-0.3054,-0.302,-0.2976,-0.3002,-0.2988,-0.3001,-0.297,-0.2895,-0.3002,-0.3002,-0.2984,-0.2814,-0.2795,-0.2781,-0.2911,-0.2909,-0.2907,-0.2817,0,-0.312,-0.305,-0.3069,-0.2998,-0.2968,-0.3004,-0.2968,-0.2958,-0.2962,-0.2936,-0.294,-0.2909,-0.2945,-0.2937,-0.2908,-0.291,-0.2862,-0.2917,-0.288,-0.2879,-0.2884,-0.2765,-0.2743,-0.2659,-0.2805,-0.2803,-0.2802,0,-0.2997,-0.298,-0.2907,-0.2906,-0.2894,-0.2861,-0.2842,-0.2817,-0.2807,-0.2812,-0.2798,-0.2818,-0.2777,-0.2823,-0.2768,-0.2805,-0.2791,-0.279,-0.2788,-0.2785,-0.2836,-0.2761,-0.2632,-0.262,-0.2783,-0.2785,-0.2786,0,-0.2904,-0.2862,-0.2814,-0.2807,-0.2803,-0.278,-0.2777,-0.277,-0.2755,-0.2738,-0.2729,-0.2706,-0.2693,-0.2675,-0.2689,-0.2721,-0.2633,-0.2679,-0.2637,-0.2636,-0.2617,-0.2618,-0.2485,-0.2605,-0.2606,-0.2606,-0.2606,0,-0.2794,-0.2748,-0.2773,-0.2743,-0.2694,-0.2717,-0.2667,-0.2669,-0.2663,-0.2635,-0.2663,-0.2636,-0.2656,-0.2631,-0.2641,-0.2596,-0.2589,-0.2593,-0.2596,-0.2591,-0.2591,-0.2582,-0.2589,-0.2603,-0.2603,-0.2604,-0.2604,0,-0.2681,-0.2695,-0.2646,-0.2648,-0.2648,-0.2612,-0.2614,-0.2587,-0.2594,-0.2558,-0.2551,-0.2562,-0.2534,-0.2546,-0.2516,-0.2523,-0.2465,-0.2476,-0.2469,-0.2473,-0.2431,-0.2435,-0.2289,-0.2272,-0.2402,-0.24,-0.2399,0,-0.261,-0.2577,-0.2577,-0.2562,-0.2558,-0.2532,-0.2518,-0.2539,-0.2523,-0.2512,-0.2486,-0.2462,-0.2443,-0.2396,-0.2401,-0.2379,-0.239,-0.234,-0.2387,-0.2384,-0.2392,-0.2394,-0.2392,-0.2331,-0.233,-0.2328,-0.2327,0,-0.2485,-0.2495,-0.2474,-0.2457,-0.2441,-0.2427,-0.2416,-0.2402,-0.2423,-0.2404,-0.2377,-0.2363,-0.2334,-0.2309,-0.2291,-0.2287,-0.2311,-0.2313,-0.2303,-0.2297,-0.2296,-0.2298,-0.2446,-0.2316,-0.2317,-0.2318,-0.2319,-0.2319,-0.2392,-0.2366,-0.2363,-0.2341,-0.2336,-0.2326,-0.2302,-0.2308,-0.2286,-0.2266,-0.228,-0.2249,-0.2242,-0.222,-0.2214,-0.219,-0.221,-0.2194,-0.219,-0.2187,-0.2182,-0.2299,-0.2187,-0.2187,-0.2187,-0.2188,-0.2188,0,-0.2271,-0.2272,-0.2251,-0.2237,-0.2219,-0.2245,-0.2236,-0.2219,-0.2192,-0.2185,-0.2168,-0.2138,-0.2116,-0.212,-0.2099,-0.208,-0.209,-0.2074,-0.2076,-0.2075,-0.2165,-0.2177,-0.2066,-0.2066,-0.2066,-0.2066,-0.2066,-0.2066,-0.2205,-0.2163,-0.2173,-0.2129,-0.213,-0.2102,-0.2095,-0.2087,-0.2082,-0.2048,-0.2031,-0.2035,-0.2032,-0.2013,-0.1993,-0.1995,-0.1987,-0.1967,-0.1973,-0.2056,-0.2068,-0.208,-0.2092,-0.1965,-0.1964,-0.1886,-0.1885,-0.1885]}]]